Time,TemperatureF,DewpointF,PressureIn,WindDirection,WindDirectionDegrees,WindSpeedMPH,WindSpeedGustMPH,Humidity,HourlyPrecipIn,Conditions,Clouds,dailyrainin,SoftwareType,DateUTC
2013-05-06 00:02:00,54.0,48.0,-100.00,NE,51,9.0,14.0,81,0.18,,,1.91,,2013-05-06 04:02:00,
2013-05-06 00:12:00,54.0,48.0,-100.00,NE,51,9.0,14.0,81,0.18,,,1.91,,2013-05-06 04:12:00,
2013-05-06 00:23:00,54.0,48.0,-100.00,ENE,62,13.0,22.0,81,0.35,,,1.91,,2013-05-06 04:23:00,
2013-05-06 00:32:00,53.0,48.0,-100.00,NE,48,11.0,15.0,82,0.00,,,1.91,,2013-05-06 04:32:00,
2013-05-06 00:43:00,53.0,48.0,-100.00,NE,48,11.0,15.0,82,0.00,,,1.91,,2013-05-06 04:43:00,
2013-05-06 00:53:00,53.0,48.0,-100.00,NE,56,12.0,19.0,81,0.00,,,1.89,,2013-05-06 04:53:00,
2013-05-06 01:02:00,54.0,48.0,-100.00,NE,41,7.0,11.0,80,0.00,,,1.83,,2013-05-06 05:02:00,
2013-05-06 01:12:00,54.0,48.0,-100.00,NE,41,7.0,11.0,80,0.00,,,1.83,,2013-05-06 05:12:00,
2013-05-06 01:22:00,54.0,48.0,-100.00,ENE,71,11.0,20.0,80,0.03,,,1.81,,2013-05-06 05:22:00,
2013-05-06 01:32:00,54.0,48.0,-100.00,ENE,65,12.0,19.0,79,0.00,,,1.80,,2013-05-06 05:32:00,
2013-05-06 01:42:00,54.0,48.0,-100.00,ENE,65,12.0,19.0,79,0.00,,,1.80,,2013-05-06 05:42:00,
2013-05-06 01:52:00,54.0,48.0,-100.00,ENE,59,9.0,13.0,78,0.00,,,1.80,,2013-05-06 05:52:00,
2013-05-06 02:02:00,54.0,48.0,-100.00,NE,55,9.0,15.0,78,0.13,,,1.82,,2013-05-06 06:02:00,
2013-05-06 02:12:00,54.0,48.0,-100.00,NE,55,9.0,15.0,78,0.13,,,1.82,,2013-05-06 06:12:00,
2013-05-06 02:22:00,54.0,48.0,-100.00,NE,55,9.0,15.0,78,0.13,,,1.82,,2013-05-06 06:22:00,
2013-05-06 02:32:00,54.0,48.0,-100.00,NE,48,7.0,11.0,82,0.35,,,1.89,,2013-05-06 06:32:00,
2013-05-06 02:42:00,54.0,48.0,-100.00,NE,48,7.0,11.0,82,0.35,,,1.89,,2013-05-06 06:42:00,
2013-05-06 02:52:00,53.0,49.0,-100.00,NE,41,6.0,12.0,85,0.16,,,1.96,,2013-05-06 06:52:00,
2013-05-06 03:01:00,53.0,48.0,-100.00,ENE,59,9.0,20.0,82,0.09,,,2.00,,2013-05-06 07:01:00,
2013-05-06 03:11:00,53.0,48.0,-100.00,ENE,59,9.0,20.0,82,0.09,,,2.00,,2013-05-06 07:11:00,
2013-05-06 03:22:00,53.0,48.0,-100.00,ENE,59,9.0,20.0,82,0.09,,,2.00,,2013-05-06 07:22:00,
2013-05-06 03:32:00,53.0,49.0,-100.00,NE,42,5.0,8.0,86,0.34,,,2.11,,2013-05-06 07:32:00,
2013-05-06 03:42:00,53.0,49.0,-100.00,NE,42,5.0,8.0,86,0.34,,,2.11,,2013-05-06 07:42:00,
2013-05-06 03:52:00,52.0,49.0,-100.00,ESE,104,5.0,9.0,89,0.24,,,2.16,,2013-05-06 07:52:00,
2013-05-06 04:02:00,53.0,49.0,-100.00,ENE,71,11.0,18.0,85,0.04,,,2.19,,2013-05-06 08:02:00,
2013-05-06 04:12:00,53.0,49.0,-100.00,ENE,71,11.0,18.0,85,0.04,,,2.19,,2013-05-06 08:12:00,
2013-05-06 04:22:00,53.0,49.0,-100.00,NE,54,7.0,13.0,84,0.13,,,2.21,,2013-05-06 08:22:00,
2013-05-06 04:32:00,54.0,49.0,-100.00,East,83,6.0,12.0,84,0.07,,,2.23,,2013-05-06 08:32:00,
2013-05-06 04:42:00,54.0,49.0,-100.00,ENE,78,8.0,18.0,83,0.01,,,2.25,,2013-05-06 08:42:00,
2013-05-06 04:52:00,54.0,49.0,-100.00,ENE,78,8.0,18.0,83,0.01,,,2.25,,2013-05-06 08:52:00,
2013-05-06 05:02:00,53.0,49.0,-100.00,NNE,32,7.0,13.0,86,0.27,,,2.30,,2013-05-06 09:02:00,
2013-05-06 05:11:00,53.0,49.0,-100.00,NNE,32,7.0,13.0,86,0.27,,,2.30,,2013-05-06 09:11:00,
2013-05-06 05:22:00,53.0,49.0,-100.00,NNE,32,7.0,13.0,86,0.27,,,2.30,,2013-05-06 09:22:00,
2013-05-06 05:33:00,53.0,49.0,-100.00,ENE,69,6.0,10.0,85,0.00,,,2.36,,2013-05-06 09:33:00,
2013-05-06 05:43:00,53.0,49.0,-100.00,ENE,69,6.0,10.0,85,0.00,,,2.36,,2013-05-06 09:43:00,
2013-05-06 05:53:00,53.0,49.0,-100.00,ENE,69,6.0,10.0,85,0.00,,,2.36,,2013-05-06 09:53:00,
2013-05-06 06:03:00,54.0,48.0,-100.00,SSE,165,5.0,14.0,79,0.00,,,2.37,,2013-05-06 10:03:00,
2013-05-06 06:12:00,54.0,48.0,-100.00,SSE,165,5.0,14.0,79,0.00,,,2.37,,2013-05-06 10:12:00,
2013-05-06 06:22:00,53.0,49.0,-100.00,ESE,106,5.0,15.0,84,0.30,,,2.42,,2013-05-06 10:22:00,
2013-05-06 06:33:00,53.0,49.0,-100.00,ENE,72,6.0,9.0,84,0.24,,,2.46,,2013-05-06 10:33:00,
2013-05-06 06:42:00,53.0,49.0,-100.00,ENE,72,6.0,9.0,84,0.24,,,2.46,,2013-05-06 10:42:00,
2013-05-06 06:52:00,53.0,48.0,-100.00,NE,49,11.0,16.0,84,0.17,,,2.49,,2013-05-06 10:52:00,
2013-05-06 07:00:00,54.0,48.0,-100.00,ENE,66,5.0,7.0,81,0.04,,,2.43,,2013-05-06 11:00:00,
2013-05-06 07:02:00,53.0,48.0,-100.00,West,270,6.0,10.0,83,0.07,,,2.45,,2013-05-06 11:02:00,
2013-05-06 07:12:00,53.0,48.0,-100.00,West,270,6.0,10.0,83,0.07,,,2.45,,2013-05-06 11:12:00,
2013-05-06 07:22:00,54.0,48.0,-100.00,ENE,66,5.0,7.0,81,0.04,,,2.43,,2013-05-06 11:22:00,
2013-05-06 07:32:00,54.0,48.0,-100.00,ENE,66,5.0,7.0,81,0.04,,,2.43,,2013-05-06 11:32:00,
2013-05-06 07:42:00,54.0,48.0,-100.00,ENE,66,5.0,7.0,81,0.04,,,2.43,,2013-05-06 11:42:00,
2013-05-06 07:52:00,54.0,48.0,-100.00,ENE,66,5.0,7.0,81,0.04,,,2.43,,2013-05-06 11:52:00,
2013-05-06 09:32:00,54.0,49.0,-100.00,East,86,10.0,16.0,83,0.20,,,2.69,,2013-05-06 13:32:00,
2013-05-06 09:42:00,54.0,49.0,-100.00,East,86,10.0,16.0,83,0.20,,,2.69,,2013-05-06 13:42:00,
2013-05-06 09:52:00,53.0,49.0,-100.00,ESE,107,4.0,9.0,88,0.30,,,2.70,,2013-05-06 13:52:00,
2013-05-06 10:01:00,53.0,49.0,-100.00,ESE,107,4.0,9.0,88,0.30,,,2.70,,2013-05-06 14:01:00,
2013-05-06 10:11:00,53.0,49.0,-100.00,ESE,107,4.0,9.0,88,0.30,,,2.70,,2013-05-06 14:11:00,
2013-05-06 10:21:00,54.0,49.0,-100.00,East,88,8.0,13.0,81,0.00,,,2.67,,2013-05-06 14:21:00,
2013-05-06 10:32:00,54.0,49.0,-100.00,East,88,8.0,13.0,81,0.00,,,2.67,,2013-05-06 14:32:00,
2013-05-06 10:42:00,54.0,49.0,-100.00,East,88,8.0,13.0,81,0.00,,,2.67,,2013-05-06 14:42:00,
2013-05-06 10:52:00,54.0,48.0,-100.00,ESE,120,6.0,12.0,78,0.03,,,2.61,,2013-05-06 14:52:00,
2013-05-06 11:01:00,54.0,49.0,-100.00,ESE,110,8.0,16.0,81,0.09,,,2.54,,2013-05-06 15:01:00,
2013-05-06 11:11:00,54.0,49.0,-100.00,ESE,110,8.0,16.0,81,0.09,,,2.54,,2013-05-06 15:11:00,
2013-05-06 11:21:00,55.0,49.0,-100.00,East,86,10.0,15.0,79,0.00,,,2.50,,2013-05-06 15:21:00,
2013-05-06 11:33:00,56.0,49.0,-100.00,East,83,3.0,5.0,77,0.00,,,2.47,,2013-05-06 15:33:00,
2013-05-06 11:42:00,56.0,49.0,-100.00,East,83,3.0,5.0,77,0.00,,,2.47,,2013-05-06 15:42:00,
2013-05-06 11:53:00,56.0,49.0,-100.00,East,83,3.0,5.0,77,0.00,,,2.47,,2013-05-06 15:53:00,
2013-05-06 12:03:00,60.0,53.0,-100.00,SSE,148,2.0,4.0,78,0.00,,,2.41,,2013-05-06 16:03:00,
2013-05-06 12:13:00,61.0,51.0,-100.00,ESE,123,3.0,6.0,69,0.00,,,2.38,,2013-05-06 16:13:00,
2013-05-06 12:23:00,61.0,51.0,-100.00,ESE,123,3.0,6.0,69,0.00,,,2.38,,2013-05-06 16:23:00,
2013-05-06 12:33:00,61.0,49.0,-100.00,East,89,6.0,13.0,65,0.00,,,2.35,,2013-05-06 16:33:00,
2013-05-06 12:42:00,61.0,49.0,-100.00,East,89,6.0,13.0,65,0.00,,,2.35,,2013-05-06 16:42:00,
2013-05-06 12:52:00,60.0,50.0,-100.00,ENE,73,9.0,14.0,71,0.00,,,2.31,,2013-05-06 16:52:00,
2013-05-06 13:03:00,60.0,49.0,-100.00,ENE,62,9.0,18.0,65,0.00,,,2.31,,2013-05-06 17:03:00,
2013-05-06 13:12:00,60.0,49.0,-100.00,ENE,62,9.0,18.0,65,0.00,,,2.31,,2013-05-06 17:12:00,
2013-05-06 13:23:00,60.0,48.0,-100.00,East,79,4.0,6.0,63,0.00,,,2.30,,2013-05-06 17:23:00,
2013-05-06 13:32:00,62.0,52.0,-100.00,South,185,3.0,10.0,71,0.00,,,2.25,,2013-05-06 17:32:00,
2013-05-06 13:42:00,62.0,52.0,-100.00,South,185,3.0,10.0,71,0.00,,,2.25,,2013-05-06 17:42:00,
2013-05-06 13:52:00,62.0,52.0,-100.00,South,185,3.0,10.0,71,0.00,,,2.25,,2013-05-06 17:52:00,
2013-05-06 14:01:00,61.0,48.0,-100.00,SE,138,6.0,10.0,62,0.00,,,2.20,,2013-05-06 18:01:00,
2013-05-06 14:12:00,61.0,48.0,-100.00,SE,138,6.0,10.0,62,0.00,,,2.20,,2013-05-06 18:12:00,
2013-05-06 14:22:00,62.0,46.0,-100.00,NNE,21,4.0,9.0,54,0.00,,,2.18,,2013-05-06 18:22:00,
2013-05-06 14:32:00,63.0,46.0,-100.00,ENE,62,10.0,14.0,55,0.00,,,2.11,,2013-05-06 18:32:00,
2013-05-06 14:43:00,63.0,46.0,-100.00,ENE,62,10.0,14.0,55,0.00,,,2.11,,2013-05-06 18:43:00,
2013-05-06 14:52:00,64.0,47.0,-100.00,East,79,7.0,11.0,55,0.00,,,2.07,,2013-05-06 18:52:00,
2013-05-06 15:01:00,64.0,48.0,-100.00,East,99,3.0,7.0,56,0.00,,,2.05,,2013-05-06 19:01:00,
2013-05-06 15:11:00,64.0,48.0,-100.00,East,99,3.0,7.0,56,0.00,,,2.05,,2013-05-06 19:11:00,
2013-05-06 15:22:00,63.0,45.0,-100.00,East,86,5.0,10.0,53,0.00,,,2.04,,2013-05-06 19:22:00,
2013-05-06 15:32:00,63.0,45.0,-100.00,East,86,5.0,10.0,53,0.00,,,2.04,,2013-05-06 19:32:00,
2013-05-06 15:42:00,63.0,45.0,-100.00,East,86,5.0,10.0,53,0.00,,,2.04,,2013-05-06 19:42:00,
2013-05-06 15:52:00,62.0,45.0,-100.00,ESE,107,5.0,11.0,52,0.00,,,2.01,,2013-05-06 19:52:00,
2013-05-06 16:02:00,62.0,45.0,-100.00,ESE,107,5.0,11.0,52,0.00,,,2.01,,2013-05-06 20:02:00,
2013-05-06 16:11:00,62.0,45.0,-100.00,ESE,107,5.0,11.0,52,0.00,,,2.01,,2013-05-06 20:11:00,
2013-05-06 16:21:00,65.0,49.0,-100.00,SE,124,2.0,4.0,56,0.00,,,2.01,,2013-05-06 20:21:00,
2013-05-06 16:32:00,63.0,45.0,-100.00,ENE,58,7.0,10.0,52,0.00,,,1.98,,2013-05-06 20:32:00,
2013-05-06 16:42:00,63.0,45.0,-100.00,ENE,58,7.0,10.0,52,0.00,,,1.98,,2013-05-06 20:42:00,
2013-05-06 16:52:00,64.0,42.0,-100.00,South,169,2.0,4.0,43,0.00,,,1.94,,2013-05-06 20:52:00,
2013-05-06 17:01:00,64.0,41.0,-100.00,SSW,208,4.0,9.0,43,0.00,,,1.89,,2013-05-06 21:01:00,
2013-05-06 17:11:00,64.0,41.0,-100.00,SSW,208,4.0,9.0,43,0.00,,,1.89,,2013-05-06 21:11:00,
2013-05-06 17:21:00,65.0,43.0,-100.00,SSW,210,3.0,5.0,45,0.00,,,1.89,,2013-05-06 21:21:00,
2013-05-06 17:33:00,63.0,43.0,-100.00,ENE,75,10.0,14.0,48,0.00,,,1.87,,2013-05-06 21:33:00,
2013-05-06 17:43:00,63.0,43.0,-100.00,ENE,75,10.0,14.0,48,0.00,,,1.87,,2013-05-06 21:43:00,
2013-05-06 17:53:00,63.0,43.0,-100.00,NNW,336,4.0,7.0,48,0.00,,,1.84,,2013-05-06 21:53:00,
2013-05-06 18:03:00,62.0,48.0,-100.00,ENE,78,6.0,9.0,60,0.00,,,1.80,,2013-05-06 22:03:00,
2013-05-06 18:12:00,62.0,48.0,-100.00,ENE,78,6.0,9.0,60,0.00,,,1.80,,2013-05-06 22:12:00,
2013-05-06 18:22:00,61.0,49.0,-100.00,ENE,64,11.0,16.0,64,0.00,,,1.80,,2013-05-06 22:22:00,
2013-05-06 18:33:00,61.0,50.0,-100.00,ENE,69,8.0,13.0,68,0.00,,,1.80,,2013-05-06 22:33:00,
2013-05-06 18:45:00,61.0,50.0,-100.00,ENE,69,8.0,13.0,68,0.00,,,1.80,,2013-05-06 22:45:00,
2013-05-06 18:52:00,61.0,50.0,-100.00,ENE,69,8.0,13.0,68,0.00,,,1.80,,2013-05-06 22:52:00,
2013-05-06 19:03:00,61.0,50.0,-100.00,ENE,72,13.0,19.0,66,0.00,,,1.80,,2013-05-06 23:03:00,
2013-05-06 19:12:00,61.0,50.0,-100.00,ENE,72,13.0,19.0,66,0.00,,,1.80,,2013-05-06 23:12:00,
2013-05-06 19:22:00,60.0,49.0,-100.00,East,79,11.0,17.0,67,0.00,,,1.79,,2013-05-06 23:22:00,
2013-05-06 19:32:00,60.0,49.0,-100.00,East,85,7.0,10.0,66,0.00,,,1.79,,2013-05-06 23:32:00,
2013-05-06 19:42:00,60.0,49.0,-100.00,East,85,7.0,10.0,66,0.00,,,1.79,,2013-05-06 23:42:00,
2013-05-06 19:52:00,60.0,49.0,-100.00,East,88,7.0,10.0,66,0.00,,,1.77,,2013-05-06 23:52:00,
2013-05-06 20:01:00,59.0,49.0,-100.00,ESE,109,3.0,7.0,68,0.00,,,1.73,,2013-05-07 00:01:00,
2013-05-06 20:12:00,59.0,49.0,-100.00,ESE,109,3.0,7.0,68,0.00,,,1.73,,2013-05-07 00:12:00,
2013-05-06 20:22:00,59.0,49.0,-100.00,NE,56,4.0,8.0,69,0.00,,,1.72,,2013-05-07 00:22:00,
2013-05-06 20:32:00,58.0,49.0,-100.00,North,1,4.0,6.0,70,0.00,,,1.72,,2013-05-07 00:32:00,
2013-05-06 20:42:00,58.0,49.0,-100.00,North,1,4.0,6.0,70,0.00,,,1.72,,2013-05-07 00:42:00,
2013-05-06 20:52:00,58.0,49.0,-100.00,NW,319,4.0,6.0,72,0.00,,,1.72,,2013-05-07 00:52:00,
2013-05-06 21:01:00,57.0,50.0,-100.00,East,79,2.0,3.0,76,0.00,,,1.71,,2013-05-07 01:01:00,
2013-05-06 21:11:00,57.0,50.0,-100.00,East,79,2.0,3.0,76,0.00,,,1.71,,2013-05-07 01:11:00,
2013-05-06 21:21:00,56.0,47.0,-100.00,WNW,284,3.0,4.0,72,0.00,,,1.71,,2013-05-07 01:21:00,
2013-05-06 21:32:00,55.0,47.0,-100.00,West,267,4.0,6.0,73,0.00,,,1.67,,2013-05-07 01:32:00,
2013-05-06 21:42:00,55.0,47.0,-100.00,West,267,4.0,6.0,73,0.00,,,1.67,,2013-05-07 01:42:00,
2013-05-06 21:53:00,55.0,47.0,-100.00,West,265,2.0,3.0,75,0.00,,,1.67,,2013-05-07 01:53:00,
2013-05-06 22:02:00,54.0,47.0,-100.00,NW,325,2.0,3.0,77,0.00,,,1.67,,2013-05-07 02:02:00,
2013-05-06 22:11:00,54.0,47.0,-100.00,NW,325,2.0,3.0,77,0.00,,,1.67,,2013-05-07 02:11:00,
2013-05-06 22:22:00,54.0,47.0,-100.00,NW,326,2.0,2.0,77,0.00,,,1.63,,2013-05-07 02:22:00,
2013-05-06 22:32:00,54.0,47.0,-100.00,NNW,346,2.0,3.0,77,0.00,,,1.58,,2013-05-07 02:32:00,
2013-05-06 22:42:00,54.0,47.0,-100.00,NNW,346,2.0,3.0,77,0.00,,,1.58,,2013-05-07 02:42:00,
2013-05-06 22:52:00,55.0,47.0,-100.00,NNE,13,0.0,0.0,76,0.00,,,1.56,,2013-05-07 02:52:00,
2013-05-06 23:02:00,54.0,48.0,-100.00,WSW,250,2.0,4.0,81,0.00,,,1.56,,2013-05-07 03:02:00,
2013-05-06 23:12:00,54.0,48.0,-100.00,WSW,250,2.0,4.0,81,0.00,,,1.56,,2013-05-07 03:12:00,
2013-05-06 23:22:00,53.0,49.0,-100.00,SSW,203,0.0,1.0,84,0.00,,,1.55,,2013-05-07 03:22:00,
2013-05-06 23:32:00,53.0,49.0,-100.00,SSE,154,0.0,1.0,86,0.00,,,1.54,,2013-05-07 03:32:00,
2013-05-06 23:43:00,53.0,49.0,-100.00,SSE,154,0.0,1.0,86,0.00,,,1.54,,2013-05-07 03:43:00,
2013-05-06 23:53:00,52.0,49.0,-100.00,ESE,106,1.0,2.0,88,0.00,,,1.52,,2013-05-07 03:53:00,